Temp
52 52 52 52 53 52 52 53 53 53 53 54 54 55 55 55 54 56 61 64 58 55 61 67 69 65 66 60 49 61 67 73 73 65 66 68 68 71 69 69 68 68 66 66 68 64 60 85 84 73 74 80 81 74
52 52 52 52 52 52 52 52 53 53 53 53 54 54 54 54 54 54 57 66 66 55 60 66 69 72 70 71 64 59 58 60 69 67 69 71 66 66 61 62 73 59 66 67 64 64 75 82 78 81 82 79 78 76
52 51 52 52 52 52 52 52 53 53 53 53 53 54 54 54 53 53 55 58 58 57 62 68 70 79 81 78 81 61 64 60 56 72 69 68 59 65 57 53 60 64 64 63 65 70 67 77 80 82 83 80 79 79
51 51 51 52 52 52 52 52 52 53 53 53 53 53 53 53 53 53 54 58 57 58 54 68 81 75 81 81 78 77 73 73 72 74 69 65 62 66 64 63 64 63 63 63 65 61 59 67 80 79 79 80 80 80
51 51 51 51 51 52 52 52 52 53 52 53 53 53 53 53 52 54 60 60 59 53 50 57 69 77 81 78 75 76 73 69 70 69 68 66 70 68 68 67 67 73 67 59 64 62 60 62 77 80 77 77 77 75
50 51 51 51 51 52 52 52 52 52 52 52 52 52 52 52 52 55 51 61 66 64 52 53 73 72 75 75 73 71 73 70 71 69 68 71 73 67 62 61 70 68 64 67 65 70 67 65 62 64 75 75 75 73
51 51 51 51 51 52 52 52 52 52 52 52 52 52 52 52 55 52 47 53 58 63 51 52 58 73 74 73 73 72 73 72 71 69 67 68 68 68 63 59 69 70 71 68 68 68 66 69 62 64 72 73 72 74
50 50 50 51 51 51 51 51 51 51 52 52 52 52 52 52 51 54 62 55 58 55 52 49 54 62 74 64 66 74 69 70 69 68 69 65 67 65 59 66 70 72 70 69 70 69 69 63 69 74 73 73 70 70
50 50 50 51 51 51 51 51 51 51 51 51 52 53 56 55 52 54 57 56 62 53 46 53 52 45 72 65 66 66 70 62 72 64 65 66 63 49 62 65 67 70 69 70 73 62 66 58 61 72 73 71 69 68
50 50 50 50 51 51 51 51 51 50 50 52 55 54 50 60 56 56 56 50 49 54 54 52 64 57 66 64 60 58 66 60 58 65 71 63 61 68 69 71 70 70 72 72 71 71 74 68 67 70 69 69 70 68
50 50 50 50 51 51 51 51 51 50 52 63 59 55 63 58 62 55 46 45 50 48 55 58 59 54 66 54 55 61 56 61 54 61 61 59 59 66 72 73 73 72 71 71 77 78 79 74 72 70 70 70 70 70
50 50 50 50 50 50 50 50 50 55 57 52 50 56 64 58 52 46 47 52 51 48 55 53 55 59 59 63 55 57 53 59 50 68 61 56 65 72 75 75 74 72 71 69 77 76 78 78 74 72 72 69 68 70
50 50 50 50 50 50 50 50 50 51 52 59 53 49 55 53 38 44 42 47 48 57 59 57 52 58 56 59 53 53 50 53 66 55 54 62 68 74 74 77 75 75 75 77 78 79 79 76 76 73 69 66 67 68
50 50 50 50 50 50 50 50 51 52 53 54 49 34 44 43 47 53 50 52 58 61 58 58 57 50 55 50 54 47 55 57 50 50 54 55 59 58 71 78 76 71 76 77 78 75 73 73 71 71 69 66 65 65
50 50 50 50 50 50 50 51 51 56 56 53 55 38 50 58 59 59 59 59 60 62 58 57 56 54 52 49 52 52 50 49 52 47 52 54 55 56 65 68 72 75 70 72 72 72 70 68 64 64 62 64 61 60
50 50 52 52 52 52 51 52 55 57 59 55 54 54 60 57 54 56 55 56 61 61 61 57 49 46 46 51 45 46 49 40 43 52 53 54 55 59 65 70 72 64 70 69 68 65 63 61 59 57 57 57 57 57
48 54 52 52 52 51 50 53 61 54 54 52 55 63 62 61 54 55 58 59 64 59 48 46 40 41 48 46 48 52 46 46 50 55 54 57 59 60 64 64 65 66 65 62 61 61 58 57 56 53 51 52 53 53
52 54 51 52 51 56 59 56 58 55 49 55 55 61 63 65 59 59 63 59 58 52 51 43 45 42 41 41 44 49 52 57 61 58 56 57 57 61 62 61 60 59 58 57 56 55 54 53 51 50 50 51 51 51
54 53 51 51 52 52 56 57 59 50 54 60 62 64 64 65 63 61 58 57 54 49 44 44 43 43 45 48 49 51 52 53 51 56 57 59 59 55 55 56 56 55 53 53 52 51 51 52 50 50 51 51 50 52
50 50 50 50 51 54 50 54 61 53 52 57 62 62 60 57 55 50 47 47 46 45 43 42 45 46 46 48 49 48 50 51 50 50 51 53 54 53 52 52 51 52 51 52 51 50 51 52 53 53 53 53 53 55
49 52 51 53 57 57 55 56 55 58 58 57 61 55 50 46 44 45 46 48 46 44 43 46 46 48 50 50 50 50 51 52 52 51 51 50 52 52 51 51 52 51 50 50 50 50 51 52 53 55 55 55 59 61
55 51 58 56 54 54 53 60 55 57 55 55 51 43 40 41 43 44 47 45 44 44 47 46 47 48 48 48 49 51 52 53 54 51 50 50 50 50 50 52 52 52 52 52 53 52 52 52 53 56 55 57 59 62
50 55 57 57 49 43 43 61 48 48 41 41 40 38 40 42 44 48 42 43 45 47 48 49 48 49 48 50 51 50 52 52 51 51 52 52 52 52 51 51 52 51 51 51 55 53 52 48 52 60 62 58 58 66
49 54 50 49 50 40 53 46 48 43 40 37 37 37 39 42 46 41 37 39 43 46 46 47 49 48 49 50 49 49 50 52 50 50 51 50 49 50 51 50 50 51 53 53 57 57 54 52 49 54 54 57 59 61
41 41 44 32 47 42 38 39 38 37 35 37 38 39 41 44 39 36 34 38 43 44 46 47 47 48 48 48 49 50 52 51 50 49 51 52 51 51 50 51 51 52 54 53 55 55 55 53 52 53 54 57 61 63
35 44 39 41 39 36 37 35 35 36 38 40 43 47 46 41 37 34 36 40 43 44 45 47 46 48 54 52 51 51 52 57 56 52 52 55 54 52 51 50 50 52 56 55 54 54 53 53 60 63 62 59 50 61
34 37 44 47 42 39 36 38 38 37 43 44 47 45 43 35 34 38 43 45 44 47 49 51 57 65 64 65 66 66 66 66 62 60 61 62 64 65 64 62 61 62 63 63 63 62 62 62 64 64 65 66 65 65
37 35 33 38 37 38 37 40 43 43 48 54 51 41 42 40 38 45 47 48 50 55 62 70 71 72 72 71 71 71 70 71 70 71 70 70 69 69 68 68 68 50 64 63 68 69 68 67 66 66 65 65 66 68
36 39 39 39 45 44 48 46 47 53 57 54 48 47 48 52 57 55 55 62 67 65 67 70 71 73 73 74 74 75 74 72 68 63 62 62 64 66 71 70 70 70 69 67 43 54 61 63 64 65 66 67 68 68
50 54 50 50 47 46 52 56 55 60 63 62 62 61 59 58 63 67 67 69 69 68 70 72 73 72 70 69 69 70 73 73 72 68 64 64 67 71 72 71 71 71 71 70 68 66 49 59 57 64 63 68 66 64
54 57 54 53 51 55 59 63 65 65 64 63 64 61 60 62 64 71 72 72 73 73 71 70 70 71 70 70 68 67 66 70 71 71 71 72 72 71 71 72 72 72 71 71 70 70 69 68 68 67 66 65 64 62
55 54 53 51 53 61 65 62 63 60 60 59 61 63 62 62 57 65 72 73 71 70 62 70 70 70 73 73 72 71 58 70 70 70 68 70 71 71 74 74 74 73 71 71 71 71 70 68 67 66 65 64 63 62
59 59 57 55 53 55 61 61 59 58 59 59 59 61 62 61 56 66 74 75 72 70 71 71 72 72 72 73 72 70 65 71 61 49 51 48 45 52 66 71 70 70 69 68 69 68 67 62 61 59 58 57 57 56
MSLP
1025.60 1025.45 1025.25 1024.98 1024.68 1024.49 1024.18 1023.92 1023.63 1023.34 1022.97 1022.60 1022.14 1021.72 1021.29 1020.90 1020.47 1019.75 1017.56 1017.20 1016.82 1014.74 1011.93 1010.82 1009.89 1009.09 1008.52 1008.47 1008.28 1007.07 1005.05 1003.15 1002.38 1002.32 1001.49 1000.55 999.65 998.97 998.91 999.00 998.98 999.41 999.74 999.89 999.94 999.43 998.40 997.70 997.66 998.14 999.10 999.39 999.84 1001.40
1025.40 1025.27 1025.14 1024.90 1024.65 1024.36 1024.05 1023.77 1023.46 1023.16 1022.87 1022.47 1022.06 1021.68 1021.30 1020.98 1020.67 1020.22 1018.01 1016.92 1016.67 1016.09 1012.41 1011.43 1010.29 1009.27 1009.09 1008.75 1008.71 1007.97 1007.46 1006.37 1004.44 1002.73 1002.16 1001.21 1000.86 1000.81 1001.10 1000.28 1000.48 1001.75 1001.94 1000.87 1001.38 1000.69 999.77 999.15 999.16 999.44 999.52 1000.01 1000.91 1002.10
1025.16 1025.07 1024.94 1024.73 1024.50 1024.20 1023.91 1023.60 1023.26 1022.93 1022.61 1022.26 1021.87 1021.50 1021.17 1020.87 1020.65 1020.44 1019.09 1018.16 1017.11 1014.68 1011.65 1009.30 1007.66 1006.44 1007.51 1007.75 1007.49 1007.62 1007.48 1007.92 1007.25 1005.53 1004.01 1003.07 1002.89 1003.49 1002.55 1003.13 1003.36 1003.42 1004.11 1003.70 1003.23 1002.24 1002.13 1001.14 1000.36 999.99 1000.28 1000.96 1001.80 1002.78
1025.04 1024.86 1024.71 1024.51 1024.33 1024.07 1023.74 1023.35 1023.03 1022.69 1022.33 1021.91 1021.59 1021.22 1020.92 1020.57 1020.38 1020.24 1019.12 1018.24 1017.67 1015.26 1012.04 1007.39 1006.73 1006.74 1006.73 1006.93 1006.93 1007.13 1007.17 1007.00 1006.47 1005.28 1004.29 1003.67 1003.96 1004.77 1003.74 1004.21 1004.03 1004.07 1004.45 1003.97 1003.72 1003.80 1004.46 1002.37 1001.03 1001.04 1001.48 1002.06 1002.61 1003.45
1024.72 1024.61 1024.41 1024.25 1024.06 1023.76 1023.40 1023.08 1022.74 1022.38 1022.02 1021.62 1021.19 1020.80 1020.58 1020.30 1020.05 1019.60 1018.28 1017.79 1017.80 1017.06 1013.73 1010.38 1008.53 1006.80 1006.47 1006.79 1007.10 1006.97 1006.73 1006.72 1005.99 1004.70 1004.07 1003.95 1003.84 1004.30 1004.59 1004.59 1003.85 1003.73 1004.27 1004.80 1004.04 1004.59 1005.75 1004.84 1002.58 1002.53 1002.64 1003.13 1003.71 1004.61
1024.40 1024.27 1024.16 1023.98 1023.77 1023.49 1023.18 1022.85 1022.49 1022.08 1021.69 1021.29 1020.84 1020.45 1020.18 1019.94 1019.78 1018.84 1017.44 1016.79 1016.34 1016.45 1015.29 1011.22 1007.40 1006.62 1006.62 1006.71 1006.79 1006.83 1006.65 1006.68 1006.02 1005.00 1004.79 1004.62 1004.62 1005.53 1004.73 1004.19 1004.44 1005.29 1005.65 1005.51 1005.43 1005.55 1005.62 1005.50 1004.90 1005.51 1003.02 1004.90 1005.63 1006.01
1024.00 1023.98 1023.91 1023.75 1023.49 1023.19 1022.85 1022.47 1022.08 1021.67 1021.19 1020.73 1020.28 1019.87 1019.56 1019.43 1019.12 1018.33 1018.39 1017.95 1017.31 1016.73 1015.59 1012.18 1008.48 1006.67 1006.50 1006.47 1006.35 1006.36 1006.25 1005.91 1005.75 1005.05 1004.94 1004.95 1005.15 1005.47 1004.98 1004.40 1004.42 1004.83 1005.67 1006.33 1006.29 1006.19 1006.20 1005.83 1006.17 1007.42 1006.32 1005.73 1006.07 1006.71
1023.58 1023.62 1023.60 1023.49 1023.27 1022.98 1022.60 1022.15 1021.63 1021.13 1020.63 1020.13 1019.68 1019.22 1018.93 1018.86 1019.07 1018.03 1017.14 1017.77 1017.49 1016.87 1015.93 1012.94 1009.25 1007.23 1006.49 1006.42 1005.66 1005.74 1005.54 1005.52 1005.30 1004.89 1004.92 1005.00 1004.97 1005.63 1004.58 1004.56 1004.69 1004.64 1005.42 1005.38 1005.52 1006.41 1006.21 1006.47 1006.67 1006.08 1006.07 1006.75 1006.62 1007.58
1023.22 1023.27 1023.27 1023.16 1022.98 1022.73 1022.36 1021.88 1021.23 1020.55 1019.96 1019.45 1019.10 1018.73 1018.32 1018.13 1017.46 1017.09 1017.30 1017.57 1017.25 1017.23 1015.14 1012.57 1009.72 1008.86 1006.87 1006.86 1006.72 1006.08 1005.35 1004.68 1004.35 1004.26 1004.19 1004.53 1004.35 1005.30 1004.58 1004.50 1004.51 1004.67 1004.86 1004.52 1004.56 1005.65 1006.55 1006.47 1007.14 1006.13 1006.27 1006.65 1007.68 1008.61
1022.80 1022.83 1022.87 1022.83 1022.70 1022.48 1022.16 1021.65 1020.89 1019.98 1019.01 1018.50 1018.43 1017.80 1016.71 1016.10 1016.82 1017.26 1017.44 1017.01 1016.79 1015.77 1014.76 1012.27 1009.78 1008.72 1008.10 1007.32 1007.30 1007.43 1005.74 1004.96 1003.81 1003.29 1002.94 1003.26 1003.12 1003.24 1003.84 1003.89 1004.18 1004.48 1004.45 1004.18 1003.81 1004.20 1004.51 1006.13 1006.28 1006.05 1006.70 1007.40 1007.98 1008.80
1022.34 1022.46 1022.49 1022.48 1022.39 1022.23 1021.96 1021.55 1020.88 1019.88 1017.78 1017.13 1016.55 1016.40 1015.92 1016.12 1016.10 1015.75 1015.87 1015.66 1014.49 1013.60 1012.81 1011.52 1010.60 1009.84 1009.03 1008.84 1008.48 1008.06 1006.88 1005.14 1003.65 1002.51 1002.10 1002.13 1001.64 1002.01 1002.44 1002.62 1003.23 1003.81 1004.04 1003.74 1003.25 1003.57 1003.59 1004.50 1005.51 1006.03 1006.77 1007.52 1008.35 1009.26
1021.87 1022.04 1022.11 1022.14 1022.09 1021.97 1021.78 1021.51 1021.13 1019.92 1019.23 1019.83 1019.74 1018.09 1016.06 1015.15 1015.18 1014.90 1014.02 1013.07 1012.48 1011.77 1011.29 1010.93 1010.86 1010.64 1010.21 1009.87 1009.24 1008.31 1007.40 1005.51 1003.90 1002.30 1001.59 1001.08 1000.98 1000.58 1000.84 1001.20 1001.99 1002.76 1003.34 1004.20 1003.07 1003.45 1003.79 1003.75 1004.70 1006.06 1007.04 1008.33 1009.18 1009.66
1021.39 1021.58 1021.71 1021.81 1021.80 1021.69 1021.56 1021.37 1021.05 1020.70 1020.10 1018.29 1018.38 1017.13 1014.85 1014.50 1014.34 1013.24 1012.35 1011.64 1011.04 1010.98 1010.79 1010.95 1010.95 1010.83 1010.65 1010.26 1009.66 1008.77 1007.20 1005.34 1003.96 1003.69 1002.40 1001.22 1000.60 1000.13 1000.29 1000.25 1001.15 1002.02 1002.33 1002.45 1002.62 1003.03 1003.57 1004.17 1005.48 1006.66 1007.54 1008.58 1009.39 1009.93
1020.92 1021.15 1021.32 1021.44 1021.41 1021.36 1021.28 1021.12 1020.75 1020.10 1019.22 1016.54 1016.22 1015.90 1014.71 1013.43 1012.93 1011.74 1011.44 1011.07 1010.76 1010.56 1010.73 1010.61 1010.56 1011.07 1010.46 1010.40 1009.31 1008.60 1006.98 1005.96 1004.91 1003.88 1003.03 1003.69 1003.31 1002.52 1000.85 1000.17 1000.57 1001.31 1001.74 1001.99 1002.43 1003.24 1004.27 1005.14 1006.33 1007.37 1008.31 1008.95 1009.97 1010.80
1020.52 1020.80 1020.95 1021.02 1020.98 1020.94 1020.94 1020.70 1020.51 1019.83 1017.79 1015.49 1014.22 1013.74 1012.17 1011.47 1011.54 1011.54 1011.55 1011.19 1010.98 1010.90 1010.90 1010.90 1010.83 1010.89 1010.32 1010.03 1009.31 1008.46 1007.08 1005.93 1005.26 1005.55 1005.77 1005.68 1004.82 1003.95 1002.73 1001.86 1001.45 1001.17 1002.00 1002.25 1002.91 1004.15 1005.53 1006.66 1008.12 1009.11 1009.63 1010.27 1011.21 1011.86
1020.27 1020.67 1020.17 1020.26 1020.38 1020.51 1020.50 1020.13 1019.56 1018.86 1016.32 1015.24 1013.97 1012.13 1010.71 1010.97 1011.54 1011.73 1011.72 1011.30 1011.38 1011.04 1011.15 1011.49 1011.73 1011.47 1010.77 1009.90 1009.41 1008.38 1007.26 1007.81 1007.60 1007.21 1007.07 1006.43 1006.00 1005.27 1004.16 1003.23 1002.75 1002.92 1003.12 1004.05 1005.11 1006.42 1007.45 1008.51 1009.76 1010.51 1011.35 1012.07 1012.53 1013.03
1020.17 1019.23 1019.38 1019.84 1020.11 1020.27 1020.20 1019.73 1017.01 1016.65 1015.65 1014.42 1012.36 1011.27 1010.98 1010.58 1011.54 1011.68 1011.56 1011.47 1011.53 1011.64 1012.10 1012.96 1012.91 1012.46 1011.89 1010.36 1008.93 1008.22 1008.57 1008.79 1007.93 1007.57 1007.42 1007.07 1006.61 1005.82 1005.07 1004.85 1004.80 1004.80 1005.38 1006.27 1007.43 1008.44 1009.13 1010.24 1011.11 1011.98 1012.77 1013.38 1013.61 1013.92
1019.11 1019.13 1019.74 1019.94 1020.03 1019.08 1018.43 1018.56 1016.32 1015.69 1014.82 1013.57 1012.07 1010.80 1010.72 1010.71 1011.18 1011.40 1011.64 1012.01 1012.28 1013.10 1013.64 1013.89 1013.70 1012.80 1011.89 1010.90 1010.14 1009.87 1009.47 1008.87 1008.36 1008.12 1007.82 1007.35 1006.82 1006.23 1006.23 1006.59 1006.96 1007.33 1007.75 1008.53 1009.27 1009.97 1010.77 1011.73 1012.54 1013.30 1013.75 1014.21 1014.79 1015.20
1018.63 1019.12 1019.78 1019.94 1019.82 1019.32 1017.01 1016.72 1016.19 1014.96 1013.66 1012.37 1011.88 1011.50 1011.11 1011.01 1011.75 1012.49 1012.86 1013.26 1014.11 1014.56 1014.77 1014.27 1013.55 1012.44 1011.76 1011.21 1011.02 1010.71 1010.32 1009.90 1009.43 1008.79 1008.25 1007.69 1007.61 1007.47 1007.70 1008.03 1008.38 1008.78 1009.20 1010.00 1010.70 1011.54 1012.35 1013.02 1013.56 1014.15 1014.66 1015.15 1015.72 1016.24
1019.23 1019.69 1019.88 1019.91 1019.91 1018.10 1016.99 1016.25 1016.15 1015.10 1013.62 1012.76 1012.26 1011.68 1012.06 1012.93 1013.84 1014.06 1014.09 1014.27 1014.46 1014.54 1014.48 1013.90 1013.10 1012.77 1012.53 1012.05 1011.74 1011.20 1010.55 1009.91 1009.38 1008.85 1008.30 1008.31 1008.52 1008.55 1009.08 1009.40 1009.77 1010.32 1010.90 1011.60 1012.24 1012.73 1013.36 1014.20 1014.77 1015.16 1015.47 1015.86 1016.23 1016.36
1019.61 1019.59 1019.86 1019.66 1018.51 1017.79 1016.82 1015.64 1014.94 1014.38 1013.92 1013.27 1012.68 1013.81 1014.56 1015.11 1014.95 1014.81 1014.67 1014.62 1014.36 1014.21 1014.00 1013.55 1013.36 1012.98 1012.47 1011.99 1011.45 1010.84 1010.02 1009.33 1009.04 1008.88 1008.95 1009.28 1009.77 1009.97 1010.58 1010.96 1011.29 1011.70 1012.16 1012.91 1013.50 1014.22 1014.58 1014.90 1015.20 1015.53 1015.76 1015.95 1015.80 1015.87
1018.98 1019.50 1018.83 1018.74 1017.85 1017.45 1016.92 1015.76 1015.36 1015.18 1015.00 1014.28 1015.12 1016.23 1016.01 1015.85 1015.59 1015.53 1015.42 1015.03 1014.85 1014.85 1014.34 1013.84 1013.30 1012.94 1012.56 1012.03 1011.43 1010.99 1010.51 1010.10 1010.00 1010.02 1010.25 1010.48 1011.00 1011.48 1011.99 1012.42 1012.65 1013.19 1013.69 1014.06 1014.41 1014.83 1015.39 1015.69 1015.76 1015.75 1015.71 1015.55 1015.54 1015.68
1019.32 1018.81 1017.84 1017.84 1017.63 1017.74 1017.09 1015.79 1016.15 1016.39 1016.48 1016.59 1016.99 1016.78 1016.50 1016.36 1016.32 1015.99 1016.15 1016.30 1015.68 1015.21 1014.31 1013.90 1013.67 1013.31 1012.85 1012.36 1011.85 1011.57 1011.43 1011.17 1011.06 1011.17 1011.36 1011.78 1012.31 1012.78 1013.22 1013.66 1013.97 1014.23 1014.54 1014.93 1015.08 1015.54 1016.06 1016.33 1016.31 1015.93 1015.69 1015.57 1015.59 1015.54
1018.82 1017.99 1017.53 1017.39 1017.41 1017.63 1016.92 1016.82 1017.13 1017.41 1017.58 1017.49 1017.31 1017.08 1017.03 1016.98 1017.11 1017.21 1017.51 1017.38 1016.67 1015.67 1014.96 1014.61 1013.96 1013.39 1013.02 1012.65 1012.62 1012.60 1012.63 1012.38 1012.31 1012.62 1012.94 1013.11 1013.62 1014.15 1014.42 1014.83 1015.10 1015.39 1015.57 1015.73 1015.77 1016.27 1016.67 1016.78 1016.65 1016.57 1016.47 1016.22 1016.09 1016.16
1019.14 1019.17 1018.53 1018.55 1018.06 1018.09 1018.13 1017.98 1018.02 1017.95 1017.72 1017.42 1017.02 1016.86 1017.14 1017.35 1017.57 1018.19 1018.56 1018.22 1017.13 1016.39 1015.83 1015.20 1014.66 1014.09 1013.80 1013.63 1013.30 1013.43 1013.60 1013.35 1013.47 1013.75 1014.26 1014.23 1014.60 1014.92 1015.32 1015.67 1015.99 1016.21 1016.28 1016.24 1016.50 1016.76 1017.08 1017.16 1017.14 1017.08 1017.07 1016.80 1016.40 1016.48
1019.30 1018.84 1018.94 1018.73 1018.94 1018.93 1018.77 1018.56 1018.28 1017.92 1017.39 1016.70 1016.50 1016.48 1016.95 1017.54 1018.32 1019.26 1019.73 1019.25 1018.37 1017.42 1016.70 1015.89 1015.10 1014.23 1013.72 1013.70 1013.82 1013.99 1014.23 1014.08 1014.16 1014.41 1014.93 1014.85 1014.99 1015.26 1015.59 1015.84 1016.24 1016.60 1016.59 1016.58 1016.66 1016.90 1016.96 1017.17 1016.87 1016.73 1016.97 1017.13 1017.14 1017.01
1019.73 1019.43 1019.14 1019.40 1019.31 1019.31 1019.06 1018.58 1018.17 1017.47 1016.27 1015.62 1015.52 1016.31 1016.99 1017.79 1018.88 1019.76 1019.94 1019.36 1018.66 1017.36 1016.27 1015.45 1014.68 1013.38 1013.19 1013.17 1013.20 1013.37 1013.48 1013.54 1013.76 1014.17 1014.62 1014.71 1014.66 1014.73 1014.83 1015.15 1015.47 1015.71 1015.94 1016.16 1016.17 1016.38 1016.52 1016.64 1016.64 1016.73 1016.70 1016.65 1016.73 1016.77
1020.13 1019.99 1019.54 1019.27 1019.16 1018.86 1018.18 1017.42 1016.57 1016.02 1015.13 1014.60 1015.34 1016.04 1016.40 1017.44 1018.69 1019.28 1019.43 1018.61 1017.70 1016.54 1015.34 1014.12 1013.80 1013.30 1012.87 1012.82 1013.06 1013.33 1013.58 1013.75 1014.00 1014.10 1014.41 1014.80 1015.14 1015.36 1015.52 1015.68 1015.86 1016.01 1016.31 1016.46 1016.07 1016.14 1016.20 1016.35 1016.52 1016.60 1016.63 1016.49 1016.45 1016.44
1019.62 1019.17 1018.98 1018.21 1017.55 1017.33 1016.56 1016.34 1015.86 1015.36 1015.10 1015.03 1015.20 1015.44 1016.25 1016.97 1017.31 1017.72 1017.97 1017.16 1016.24 1015.27 1014.12 1013.42 1013.37 1013.36 1013.36 1013.21 1013.15 1013.24 1013.42 1013.66 1013.91 1014.14 1014.36 1014.65 1014.96 1015.32 1015.46 1015.67 1015.94 1016.18 1016.47 1016.89 1017.26 1017.31 1017.39 1017.33 1017.25 1017.09 1016.79 1016.55 1016.46 1016.38
1017.12 1017.18 1016.70 1016.58 1016.32 1016.20 1015.85 1015.72 1015.41 1015.16 1014.87 1014.92 1014.99 1015.15 1015.60 1016.05 1016.12 1015.92 1015.51 1015.15 1014.80 1014.46 1014.00 1013.60 1013.55 1013.65 1013.84 1014.10 1014.33 1014.43 1014.47 1014.47 1014.56 1014.69 1014.81 1015.00 1015.18 1015.42 1015.58 1015.70 1015.83 1015.98 1016.14 1016.29 1016.61 1017.16 1017.44 1017.39 1017.12 1016.99 1016.84 1016.28 1016.22 1016.58
1016.55 1016.00 1015.96 1015.95 1015.97 1015.90 1015.49 1015.18 1015.00 1014.93 1014.96 1014.97 1014.92 1014.85 1014.96 1015.48 1015.34 1014.84 1014.51 1014.44 1014.36 1014.29 1014.28 1014.38 1014.52 1014.57 1014.56 1014.69 1014.92 1015.16 1015.50 1015.86 1016.05 1015.95 1015.74 1015.83 1015.99 1016.13 1016.15 1016.19 1016.26 1016.42 1016.47 1016.44 1016.32 1016.16 1016.50 1016.41 1016.34 1016.43 1016.48 1016.49 1016.63 1016.80
1016.41 1015.99 1015.66 1015.55 1015.55 1015.36 1014.98 1014.77 1014.70 1015.14 1015.57 1015.27 1015.02 1015.45 1015.39 1015.27 1015.60 1015.40 1014.93 1014.75 1014.77 1014.86 1015.17 1014.91 1015.01 1015.17 1015.20 1015.39 1015.93 1016.34 1016.49 1016.69 1016.83 1017.04 1017.07 1016.81 1016.80 1016.81 1016.41 1016.26 1016.32 1016.48 1016.49 1016.38 1016.17 1015.89 1016.00 1016.13 1016.24 1016.31 1016.41 1016.53 1016.68 1016.91
1015.36 1015.52 1015.81 1015.83 1015.87 1015.38 1015.10 1015.10 1015.24 1015.35 1015.55 1015.56 1015.81 1015.84 1015.76 1015.98 1016.32 1015.94 1015.65 1015.64 1015.63 1015.71 1015.74 1015.89 1016.03 1016.21 1016.36 1016.09 1016.24 1016.58 1016.83 1017.30 1017.68 1017.84 1017.97 1018.12 1018.20 1018.07 1017.71 1017.44 1017.46 1017.41 1017.20 1017.05 1016.71 1016.59 1016.70 1017.18 1017.46 1017.61 1017.80 1017.87 1018.03 1018.26
Wind_Speed
8 9 11 12 11 13 13 13 13 14 15 15 15 15 15 16 17 11 8 4 5 7 15 17 16 11 8 3 4 10 9 9 8 13 13 12 13 8 12 9 10 15 13 13 11 16 22 4 7 8 8 7 15 18
11 9 11 11 11 12 13 14 14 13 14 15 15 15 14 14 14 13 7 9 6 7 13 19 20 20 16 9 4 4 9 7 7 6 3 4 7 6 11 6 16 4 9 7 3 4 8 8 11 10 10 11 15 16
10 8 11 12 10 13 13 14 14 14 14 15 15 15 14 14 12 10 8 8 10 10 13 15 13 10 11 12 9 5 3 2 9 6 5 4 4 8 2 5 3 4 6 6 5 3 7 2 9 7 11 11 17 14
9 10 11 10 11 12 13 13 13 14 15 15 16 15 15 14 13 10 7 6 8 7 7 3 5 8 6 7 5 11 10 9 10 8 5 5 2 3 6 3 4 3 1 5 9 7 13 20 9 12 12 11 14 14
9 9 9 10 11 13 13 13 14 15 16 17 17 16 16 15 14 10 9 5 6 5 7 10 18 17 8 7 9 9 8 7 9 9 6 6 6 3 4 9 6 3 2 4 8 8 11 11 8 8 11 12 14 14
9 8 8 9 11 12 13 14 15 16 17 17 18 17 17 16 11 6 3 3 5 1 5 6 8 6 7 6 8 9 8 7 7 6 4 7 2 2 5 9 9 13 13 11 6 10 10 8 18 23 16 15 13 13
9 8 9 9 12 12 14 15 16 18 19 18 17 16 15 11 7 3 3 3 7 3 4 7 4 3 3 4 7 7 9 7 7 8 8 7 5 2 6 10 11 8 7 4 3 2 10 7 9 9 6 12 12 14
9 8 9 11 11 12 14 16 18 18 19 19 18 15 10 7 8 6 5 7 6 4 4 6 4 8 2 3 3 5 7 8 9 8 9 9 4 3 10 7 9 3 1 4 5 5 5 3 9 12 12 10 11 11
9 9 9 10 10 12 14 17 20 21 21 21 19 10 4 5 3 2 10 6 4 4 5 4 5 4 6 6 5 5 4 8 6 11 12 9 10 5 9 12 10 13 9 10 7 2 7 7 9 10 13 14 11 9
10 10 9 9 10 12 14 17 21 24 26 19 7 5 4 3 13 9 4 3 4 6 6 6 6 5 7 5 3 4 5 5 9 11 10 13 13 16 16 14 7 9 9 11 10 8 9 12 13 10 14 10 11 11
11 10 10 9 9 11 13 16 20 24 19 3 4 3 5 10 4 4 4 4 4 4 5 5 5 6 7 6 4 3 4 4 8 11 10 11 12 15 19 18 13 10 6 16 9 8 9 15 13 10 9 11 11 10
12 11 10 9 9 10 12 14 16 12 7 9 8 9 5 4 4 4 4 4 6 3 3 2 0 3 4 3 4 2 4 5 6 6 8 15 12 13 14 20 18 14 15 24 8 6 7 4 17 12 12 12 10 11
13 12 10 10 10 11 12 13 14 15 14 5 4 3 4 2 1 5 4 3 3 1 1 1 3 2 2 3 4 4 5 7 8 1 6 10 8 8 12 13 14 15 16 15 14 10 8 11 14 14 13 11 9 9
14 12 10 11 11 12 12 13 14 11 6 5 5 3 4 4 5 3 4 3 2 2 4 3 4 2 3 3 3 5 4 5 4 5 3 9 14 14 16 11 13 19 18 17 14 9 13 13 12 11 13 12 10 11
14 12 10 12 13 13 13 12 11 8 6 4 4 3 9 6 2 5 6 6 6 4 6 5 5 3 4 4 4 4 5 5 3 6 6 9 10 13 13 12 6 4 1 10 13 14 14 15 13 12 10 12 10 10
13 8 13 14 11 10 10 12 11 8 3 4 5 7 2 4 3 2 4 3 4 5 5 1 4 4 3 4 3 7 5 5 4 5 5 6 9 9 10 8 5 9 13 14 15 15 15 14 13 13 11 9 10 11
14 4 9 11 7 7 10 5 5 4 4 5 6 6 6 1 1 4 4 4 3 5 2 2 3 3 5 5 3 4 4 5 6 5 5 9 11 9 4 7 9 12 14 15 14 13 15 15 14 13 12 9 11 13
7 8 7 5 4 8 7 6 4 4 5 7 8 6 6 3 3 1 3 7 5 3 2 2 3 4 4 4 4 4 7 10 12 8 8 7 6 3 7 10 11 12 13 13 13 14 15 14 12 10 13 13 14 12
6 8 8 3 4 5 3 4 3 4 5 6 4 5 5 4 7 7 7 6 3 2 1 3 5 3 2 2 9 11 10 9 9 10 9 7 6 8 9 10 11 13 14 14 14 10 9 12 11 9 10 9 9 7
15 10 5 2 4 5 3 2 2 5 5 4 5 3 6 7 6 4 4 2 1 3 4 4 3 4 4 7 7 8 9 9 8 7 5 5 6 10 10 10 9 13 12 13 12 13 12 10 8 8 7 7 7 8
7 6 4 4 6 5 4 3 3 3 5 5 7 9 5 4 3 3 3 3 1 2 2 2 4 7 7 6 6 6 6 3 4 3 5 7 7 9 9 9 12 11 12 10 10 8 7 5 5 6 7 6 6 4
7 8 3 4 3 3 4 3 4 6 5 6 6 4 2 3 3 3 4 2 3 2 2 4 5 4 4 5 6 6 6 8 9 9 11 12 10 10 10 9 9 9 8 7 6 7 7 5 4 1 4 5 6 6
6 5 4 1 2 1 6 2 2 3 3 4 3 3 1 3 4 5 3 5 3 5 6 4 4 4 4 6 10 11 10 11 8 9 10 11 10 10 9 9 8 10 9 7 7 8 7 5 5 5 3 2 2 7
3 4 3 1 2 2 4 2 2 3 3 2 2 2 3 3 4 4 3 5 6 6 7 8 4 5 7 10 9 8 7 8 10 11 9 11 10 9 9 8 8 7 7 6 7 8 5 4 6 6 6 7 6 6
1 4 1 3 3 3 2 4 2 1 2 2 1 2 3 3 3 3 5 6 9 8 7 7 6 6 8 9 9 9 8 8 9 10 7 9 9 8 9 8 7 6 4 7 8 8 6 4 3 1 3 4 4 5
3 2 1 2 2 2 2 2 2 2 2 1 2 3 3 4 5 5 5 8 6 5 5 5 4 4 5 4 6 5 4 6 9 8 6 8 8 8 7 6 4 1 1 6 6 6 4 4 4 5 5 5 3 5
1 2 2 4 2 1 2 3 3 3 2 2 3 4 3 4 4 2 1 4 4 4 5 6 5 9 10 10 9 8 6 7 8 6 6 5 5 5 6 7 8 5 8 8 5 6 6 5 4 3 2 1 3 2
2 1 2 1 2 3 3 2 1 5 4 4 4 2 3 4 2 3 2 6 7 9 8 1 8 8 8 8 9 9 10 10 10 11 10 10 9 9 9 7 8 13 10 11 5 5 4 4 3 2 1 3 3 3
2 3 3 4 3 3 3 5 4 5 10 10 8 6 5 4 6 7 9 9 4 7 6 6 8 8 8 9 9 9 9 9 10 13 14 10 9 8 7 7 7 7 6 8 11 8 8 6 6 5 5 4 2 4
2 6 1 7 4 5 7 6 10 9 9 10 9 9 8 7 7 7 7 8 5 5 5 7 8 9 10 10 11 12 11 10 10 9 8 9 9 8 7 7 6 6 5 6 8 7 4 6 7 7 7 4 8 10
3 11 15 14 14 10 10 10 10 11 10 10 9 8 10 11 4 3 7 7 7 8 9 10 10 10 10 10 9 9 9 9 10 12 9 8 8 7 6 5 5 5 4 4 5 4 2 4 5 7 6 6 6 7
8 11 10 14 11 9 8 8 10 11 9 7 10 11 8 11 11 8 7 7 8 8 9 10 9 10 9 9 9 9 13 10 10 10 16 10 8 9 7 3 4 3 5 5 5 7 8 10 10 11 11 13 12 13
10 10 10 9 8 6 6 6 7 7 8 9 10 8 8 9 8 6 6 7 7 7 7 8 9 7 6 7 7 8 9 8 8 6 6 5 7 8 8 8 8 8 10 9 11 12 13 19 15 17 16 14 13 12
Wind_Direction
315 325 335 333 339 338 337 339 337 333 330 335 339 340 344 347 345 337 312 39 302 297 290 282 298 297 302 128 352 329 286 216 198 219 236 237 244 248 234 263 234 206 211 225 243 237 247 137 178 234 94 109 86 81
297 303 322 324 331 331 330 326 327 338 337 332 335 334 337 337 340 332 289 350 336 267 280 314 279 265 263 280 261 292 338 346 309 327 310 294 316 19 353 260 179 245 331 282 1 352 20 55 91 121 119 113 103 104
332 311 313 315 322 328 333 328 331 330 331 331 328 327 327 329 334 335 310 319 289 262 266 248 250 241 220 233 250 267 133 269 317 338 323 338 23 346 293 32 307 76 67 295 333 52 352 169 129 134 120 109 113 114
312 310 313 322 325 323 319 322 327 326 324 322 322 321 320 319 321 315 293 307 294 291 278 259 87 227 231 271 255 255 273 284 288 281 312 296 324 315 317 57 323 35 167 246 263 326 347 308 112 107 119 128 116 119
302 301 309 318 320 323 324 324 324 322 322 319 317 317 315 314 314 297 272 261 241 294 316 311 307 266 245 226 240 256 260 268 282 291 289 279 296 229 257 302 269 358 279 308 321 72 209 289 116 145 139 129 110 113
289 297 302 307 315 320 325 325 322 320 317 314 310 307 307 306 301 277 269 205 234 256 297 290 346 254 223 233 248 244 237 229 256 274 301 294 26 312 278 259 238 74 24 2 4 53 68 49 41 348 105 99 103 102
281 289 300 309 313 320 319 320 321 320 317 314 310 304 299 289 253 256 343 338 326 299 274 288 314 217 231 228 220 228 225 248 233 253 230 243 253 264 263 263 292 60 89 22 338 354 79 90 118 185 130 107 115 116
263 274 288 303 312 317 322 323 321 318 316 314 312 309 300 241 257 269 190 214 293 286 259 270 291 229 188 246 248 205 218 207 238 243 244 234 243 239 247 265 281 255 265 276 15 309 207 289 203 162 127 123 114 121
258 266 279 298 309 317 322 322 320 317 314 311 312 301 237 230 211 154 125 161 224 273 294 272 292 4 307 8 1 269 277 247 214 220 235 236 217 200 253 254 272 262 254 244 177 131 244 148 266 149 136 137 137 141
251 259 269 288 304 316 323 325 324 319 311 309 277 205 211 108 121 139 179 196 205 189 229 262 292 286 316 345 49 319 277 260 241 233 223 215 237 225 219 243 243 248 258 280 235 257 170 150 179 164 137 153 149 163
247 253 263 278 295 312 323 328 329 324 294 219 261 53 40 143 214 221 205 230 203 226 214 246 294 322 310 321 336 285 285 255 259 250 237 233 226 223 226 226 198 207 258 282 245 259 243 164 168 166 138 161 149 185
237 244 255 266 284 302 316 326 331 319 3 323 297 271 255 186 237 240 230 210 221 230 200 251 206 311 300 321 269 239 255 264 254 281 256 227 239 226 223 211 208 202 196 231 204 204 253 247 145 159 156 160 158 180
225 234 245 257 274 292 306 316 318 308 294 234 219 258 279 230 286 238 211 220 198 196 153 309 303 292 280 246 243 267 247 249 317 347 272 251 309 207 206 211 195 203 233 233 213 201 228 128 140 154 145 145 157 175
217 226 237 254 269 282 293 303 311 310 274 231 188 245 240 197 250 244 304 320 63 282 325 306 294 207 232 240 242 252 249 275 257 243 249 9 351 343 323 207 191 197 214 220 211 139 126 122 121 139 146 131 143 152
207 220 234 252 258 269 281 293 293 280 270 268 242 241 215 200 181 341 336 297 1 339 334 324 278 253 253 256 234 286 252 242 340 15 10 351 339 322 314 344 350 177 134 102 104 106 111 116 115 124 110 129 128 130
192 228 229 238 251 269 283 274 256 244 251 261 255 260 281 80 343 334 293 328 358 325 321 338 349 307 275 269 200 234 269 60 287 341 338 325 335 296 297 293 13 64 99 100 108 115 116 115 121 112 106 111 110 111
180 255 131 191 216 250 258 262 227 215 271 245 238 229 265 332 70 307 266 291 302 306 359 22 277 272 316 252 256 339 34 326 290 351 348 336 333 313 283 99 69 88 96 97 110 114 108 111 113 111 106 96 94 87
205 153 155 171 248 235 208 218 253 223 241 243 259 349 14 343 219 334 6 30 348 31 23 284 317 241 230 278 323 350 328 328 325 333 328 331 332 346 99 103 103 102 105 104 106 108 114 120 114 113 110 106 98 100
188 150 168 188 302 292 204 213 261 270 250 298 307 270 274 357 37 9 357 26 29 108 240 243 252 249 281 312 335 323 310 309 302 306 296 325 90 87 89 86 100 99 101 109 111 111 113 112 115 115 116 119 128 143
96 115 153 218 270 270 219 234 192 272 283 352 285 285 14 33 357 341 309 293 217 191 203 228 263 354 312 306 300 289 287 282 272 278 283 99 87 90 84 90 94 101 97 98 95 101 109 116 122 131 142 154 166 189
206 132 182 237 207 271 305 281 238 273 321 293 18 31 358 347 322 313 327 338 284 319 291 321 323 312 306 302 294 286 284 329 49 55 91 92 86 92 91 89 93 96 100 108 114 110 99 89 114 143 156 196 201 138
104 189 234 178 262 207 260 246 310 351 293 354 38 358 307 310 330 9 306 328 12 293 276 282 290 327 336 342 357 17 24 49 73 79 80 92 95 96 95 94 98 95 91 101 110 98 78 58 37 145 179 155 150 147
181 215 212 144 258 42 259 340 343 4 305 8 339 299 312 351 357 322 45 342 351 334 335 32 22 353 11 31 50 43 42 60 62 71 83 84 84 81 78 72 76 86 78 59 81 82 77 45 43 39 66 144 233 132
165 303 302 262 153 304 3 356 56 357 359 335 304 16 9 2 2 32 12 328 324 342 27 13 1 60 57 50 54 51 52 64 65 62 66 81 77 75 79 79 77 75 84 86 89 88 78 56 43 38 31 33 30 55
72 327 138 305 344 14 315 341 351 334 303 293 294 118 78 29 43 39 357 330 356 12 27 30 35 34 58 49 53 62 49 73 81 79 72 87 92 87 78 75 77 77 85 98 99 99 96 77 72 94 224 242 77 70
40 47 56 61 297 19 343 315 339 319 287 299 59 105 70 47 44 36 357 329 333 337 338 332 328 350 56 112 105 93 97 86 82 84 98 96 96 103 111 111 113 111 178 118 118 118 116 240 207 108 86 97 93 309
353 1 26 39 2 51 275 246 247 265 298 41 73 59 49 60 45 43 249 299 295 275 271 284 275 65 68 74 78 91 101 102 116 136 160 160 146 135 107 97 95 127 171 179 150 148 154 145 142 130 136 148 95 1
356 348 246 261 205 209 266 244 327 16 356 43 73 60 67 77 139 160 136 256 246 261 271 338 64 50 63 95 113 113 110 106 99 94 92 85 78 73 74 77 66 68 65 36 55 85 110 118 102 94 86 322 9 34
230 204 225 251 186 197 28 37 30 66 74 80 92 87 110 158 164 173 198 220 192 1 345 101 100 92 75 62 69 79 83 85 86 89 88 90 93 95 106 111 118 103 111 92 55 57 48 37 24 6 358 347 342 258
118 180 104 58 66 59 88 107 90 94 93 96 109 111 114 138 167 182 195 203 166 134 81 74 83 80 76 71 65 61 52 51 54 66 73 78 79 78 80 84 90 94 100 122 130 138 175 228 203 225 235 321 20 5
73 102 107 105 104 116 131 131 130 128 121 104 91 93 106 119 134 115 88 84 85 82 81 74 61 53 57 65 77 86 86 76 61 47 51 70 69 64 63 66 80 63 45 22 4 352 23 304 354 356 326 312 317 304
114 108 105 104 111 123 123 121 113 108 103 86 88 99 104 86 77 45 41 85 83 76 50 61 59 58 72 103 93 73 50 49 36 34 23 30 32 9 0 45 52 50 26 337 324 335 360 354 358 3 2 357 0 7
132 111 104 103 100 96 85 79 79 95 104 111 122 114 88 80 58 29 54 51 56 56 54 51 53 77 55 41 97 127 120 108 115 120 110 58 23 356 336 12 14 360 356 350 348 356 4 30 31 34 38 39 43 40